W4JTD-13 Weather Reports


Display with metric or nautical units.
time (UTC)temp
F
wind
direction
speed
MPH
gust
MPH
rain 1hr
in
rain 24hr
in
rain mn
in
humidity
%
barometer
mb
20260504035034 44 359 2.0 5.0 0.00 0.00 0.00 76 1016.5
20260504034547 44 2 3.0 6.0 0.00 0.00 0.00 74 1016.5
20260504034038 44 15 3.0 6.0 0.00 0.00 0.00 76 1016.6
20260504033534 43 351 3.0 6.0 0.00 0.00 0.00 77 1016.6
20260504033047 43 348 1.0 3.0 0.00 0.00 0.00 79 1016.8
20260504032535 43 354 2.0 3.0 0.00 0.00 0.00 78 1016.7
20260504032036 43 11 2.0 3.0 0.00 0.00 0.00 76 1016.6
20260504031542 43 11 1.0 2.0 0.00 0.00 0.00 76 1016.7
20260504031035 44 343 0.0 2.0 0.00 0.00 0.00 75 1016.7
20260504030534 44 0 0.0 3.0 0.00 0.00 0.00 75 1016.7
20260504030038 44 325 1.0 3.0 0.00 0.00 0.00 73 1016.8
20260504025534 44 340 0.0 2.0 0.00 0.00 0.00 75 1016.7
20260504025033 45 0 0.0 2.0 0.00 0.00 0.00 70 1017.0
20260504024547 45 0 0.0 1.0 0.00 0.00 0.00 71 1016.8
20260504024035 45 0 0.0 2.0 0.00 0.00 0.00 73 1016.8
20260504023535 45 274 0.0 2.0 0.00 0.00 0.00 73 1016.9
20260504023042 45 345 0.0 2.0 0.00 0.00 0.00 74 1016.7
20260504022535 45 0 0.0 2.0 0.00 0.00 0.00 73 1016.8
20260504022034 45 0 0.0 2.0 0.00 0.00 0.00 70 1016.6
20260504021541 45 306 0.0 2.0 0.00 0.00 0.00 69 1016.7
20260504021034 45 187 0.0 4.0 0.00 0.00 0.00 69 1016.7
20260504020534 45 352 0.0 4.0 0.00 0.00 0.00 69 1016.7
20260504020049 45 1 2.0 5.0 0.00 0.00 0.00 67 1016.7
20260504015534 44 11 2.0 5.0 0.00 0.00 0.00 68 1016.6
20260504015036 44 360 2.0 4.0 0.00 0.00 0.00 67 1016.6
20260504014540 44 15 2.0 4.0 0.00 0.00 0.00 70 1016.7
20260504014034 44 349 3.0 4.0 0.00 0.00 0.00 70 1016.7
20260504013535 43 360 2.0 4.0 0.00 0.00 0.00 69 1016.5
20260504013101 43 360 2.0 4.0 0.00 0.00 0.00 70 1016.4
20260504012534 43 346 3.0 5.0 0.00 0.00 0.00 69 1016.3
20260504012034 44 7 3.0 5.0 0.00 0.00 0.00 66 1016.1
20260504011542 44 1 3.0 5.0 0.00 0.00 0.00 66 1016.3
20260504011034 43 340 3.0 6.0 0.00 0.00 0.00 66 1016.3
20260504010533 44 352 3.0 6.0 0.00 0.00 0.00 68 1016.3
20260504010043 44 351 2.0 5.0 0.00 0.00 0.00 65 1016.2
20260504005534 45 345 2.0 5.0 0.00 0.00 0.00 63 1016.0
20260504005035 45 55 3.0 5.0 0.00 0.00 0.00 61 1015.9
20260504004540 46 353 3.0 4.0 0.00 0.00 0.00 61 1016.0
20260504004035 46 0 0.0 3.0 0.00 0.00 0.00 60 1016.1
20260504003535 46 286 2.0 4.0 0.00 0.00 0.00 58 1016.2
20260504003039 47 8 3.0 4.0 0.00 0.00 0.00 59 1016.0
20260504002534 48 345 2.0 3.0 0.00 0.00 0.00 58 1016.0
20260504002034 49 313 0.0 3.0 0.00 0.00 0.00 53 1016.0
20260504001540 49 293 1.0 3.0 0.00 0.00 0.00 52 1016.1
20260504001034 50 346 2.0 2.0 0.00 0.00 0.00 50 1016.0
20260504000533 50 305 0.0 3.0 0.00 0.00 0.00 50 1016.0
20260504000045 51 0 2.0 3.0 0.00 0.00 0.00 50 1016.0
20260503235534 52 359 2.0 3.0 0.00 0.00 0.00 45 1016.0
20260503235034 53 7 1.0 3.0 0.00 0.00 0.00 41 1016.0
20260503234541 54 63 1.0 3.0 0.00 0.00 0.00 40 1015.9
20260503234114 54 0 0.0 3.0 0.00 0.00 0.00 38 1015.9
20260503233533 56 243 1.0 3.0 0.00 0.00 0.00 40 1016.0
20260503233040 57 303 2.0 3.0 0.00 0.00 0.00 31 1016.0
20260503232533 58 343 0.0 4.0 0.00 0.00 0.00 34 1015.9
20260503232034 59 224 1.0 4.0 0.00 0.00 0.00 30 1015.8
20260503231538 60 159 2.0 4.0 0.00 0.00 0.00 29 1015.8
20260503231034 61 276 1.0 4.0 0.00 0.00 0.00 28 1015.8
20260503230534 61 0 0.0 2.0 0.00 0.00 0.00 27 1015.7
20260503230041 61 0 0.0 2.0 0.00 0.00 0.00 28 1015.6
20260503225534 62 172 1.0 6.0 0.00 0.00 0.00 27 1015.6
20260503225034 62 0 3.0 6.0 0.00 0.00 0.00 26 1015.6
20260503224543 63 179 0.0 1.0 0.00 0.00 0.00 26 1015.5
20260503224035 63 0 0.0 5.0 0.00 0.00 0.00 28 1015.5
20260503223535 62 0 0.0 10.0 0.00 0.00 0.00 27 1015.6
20260503223042 62 157 4.0 10.0 0.00 0.00 0.00 28 1015.5
20260503222534 62 176 1.0 4.0 0.00 0.00 0.00 24 1015.4
20260503222030 63 247 0.0 3.0 0.00 0.00 0.00 28 1015.7
20260503221551 62 0 1.0 11.0 0.00 0.00 0.00 26 1015.7
20260503221037 61 0 3.0 11.0 0.00 0.00 0.00 25 1015.8
20260503220531 61 234 3.0 10.0 0.00 0.00 0.00 25 1015.8
20260503220040 62 159 4.0 8.0 0.00 0.00 0.00 26 1015.8
20260503215535 62 233 4.0 8.0 0.00 0.00 0.00 26 1015.8
20260503215033 62 119 3.0 7.0 0.00 0.00 0.00 26 1015.7
20260503214541 62 160 1.0 7.0 0.00 0.00 0.00 27 1015.7
20260503214034 62 160 4.0 7.0 0.00 0.00 0.00 26 1015.8
20260503213535 62 278 2.0 10.0 0.00 0.00 0.00 25 1015.6
20260503213043 62 39 4.0 10.0 0.00 0.00 0.00 25 1015.6
20260503212534 62 262 1.0 6.0 0.00 0.00 0.00 27 1015.6
20260503212034 62 0 2.0 8.0 0.00 0.00 0.00 26 1015.5
20260503211542 62 319 2.0 8.0 0.00 0.00 0.00 25 1015.5
20260503211033 62 293 3.0 9.0 0.00 0.00 0.00 26 1015.7
20260503210534 61 0 2.0 9.0 0.00 0.00 0.00 27 1015.8
20260503210041 61 205 3.0 9.0 0.00 0.00 0.00 28 1015.8
20260503205535 61 333 3.0 12.0 0.00 0.00 0.00 27 1015.7
20260503205035 61 0 2.0 12.0 0.00 0.00 0.00 30 1015.8
20260503204603 61 319 4.0 9.0 0.00 0.00 0.00 27 1015.8
20260503204035 62 217 5.0 9.0 0.00 0.00 0.00 27 1015.6
20260503203536 62 119 3.0 7.0 0.00 0.00 0.00 30 1015.7
20260503203046 62 293 2.0 7.0 0.00 0.00 0.00 30 1015.8
20260503202537 61 162 4.0 7.0 0.00 0.00 0.00 26 1015.8
20260503202036 62 34 2.0 8.0 0.00 0.00 0.00 28 1015.9
20260503201545 61 350 1.0 8.0 0.00 0.00 0.00 30 1016.0
20260503201038 61 234 3.0 10.0 0.00 0.00 0.00 29 1016.1
20260503200536 61 305 4.0 10.0 0.00 0.00 0.00 28 1016.2
20260503200044 61 205 4.0 6.0 0.00 0.00 0.00 29 1016.3
20260503195536 60 261 3.0 12.0 0.00 0.00 0.00 28 1016.3
20260503195036 60 136 4.0 12.0 0.00 0.00 0.00 30 1016.4
20260503194549 60 354 2.0 8.0 0.00 0.00 0.00 29 1016.5
20260503194037 61 344 2.0 8.0 0.00 0.00 0.00 29 1016.6
20260503193536 60 10 3.0 8.0 0.00 0.00 0.00 28 1016.6
20260503193046 61 7 1.0 6.0 0.00 0.00 0.00 31 1016.5
20260503192536 61 329 0.0 7.0 0.00 0.00 0.00 34 1016.6
20260503192036 60 0 3.0 10.0 0.00 0.00 0.00 35 1016.5
20260503191606 59 295 3.0 10.0 0.00 0.00 0.00 33 1016.6
20260503191039 59 201 4.0 9.0 0.00 0.00 0.00 28 1016.7
20260503190537 59 144 4.0 10.0 0.00 0.00 0.00 32 1016.8
20260503190044 58 8 2.0 10.0 0.00 0.00 0.00 33 1017.0
20260503185536 58 346 4.0 14.0 0.00 0.00 0.00 32 1016.9
20260503185036 58 312 6.0 14.0 0.00 0.00 0.00 29 1016.8
20260503184544 58 355 7.0 15.0 0.00 0.00 0.00 29 1016.9
20260503184038 58 354 1.0 15.0 0.00 0.00 0.00 29 1017.1
20260503183535 58 267 6.0 15.0 0.00 0.00 0.00 30 1017.2
20260503183049 58 199 5.0 13.0 0.00 0.00 0.00 29 1017.3
20260503182536 58 280 4.0 14.0 0.00 0.00 0.00 33 1017.4
20260503182035 58 260 5.0 14.0 0.00 0.00 0.00 34 1017.5
20260503181550 58 172 4.0 9.0 0.00 0.00 0.00 33 1017.2
20260503181035 58 117 3.0 7.0 0.00 0.00 0.00 33 1017.2
20260503180535 58 221 3.0 7.0 0.00 0.00 0.00 33 1017.3
20260503180056 57 129 4.0 8.0 0.00 0.00 0.00 28 1017.3
20260503175535 57 118 2.0 10.0 0.00 0.00 0.00 31 1017.4
20260503175035 57 293 3.0 10.0 0.00 0.00 0.00 33 1017.7
20260503174551 57 250 2.0 7.0 0.00 0.00 0.00 32 1017.5
20260503174036 56 121 3.0 12.0 0.00 0.00 0.00 31 1017.5
20260503173536 57 13 3.0 12.0 0.00 0.00 0.00 35 1017.7
20260503173127 57 311 2.0 10.0 0.00 0.00 0.00 34 1017.7
20260503172535 57 172 6.0 10.0 0.00 0.00 0.00 35 1017.7
20260503172036 56 153 2.0 9.0 0.00 0.00 0.00 33 1017.7
20260503171552 56 288 3.0 12.0 0.00 0.00 0.00 33 1017.7
20260503171036 56 20 5.0 12.0 0.00 0.00 0.00 35 1017.7
20260503170536 55 272 3.0 12.0 0.00 0.00 0.00 34 1017.7
20260503150536 50 336 1.0 7.0 0.00 0.00 0.00 45 1019.0
20260503131035 45 65 5.0 12.0 0.00 0.00 0.00 48 1018.7
20260503130535 45 4 3.0 12.0 0.00 0.00 0.00 48 1018.8
20260503110535 38 0 0.0 6.0 0.00 0.00 0.00 64 1017.7
20260503081543 40 310 4.0 9.0 0.00 0.00 0.00 57 1015.8
20260503081035 40 19 1.0 5.0 0.00 0.00 0.00 60 1015.6
20260503080535 41 0 0.0 1.0 0.00 0.00 0.00 60 1015.5
20260503072535 41 24 0.0 4.0 0.00 0.00 0.00 63 1015.5
20260503072034 42 6 0.0 4.0 0.00 0.00 0.00 64 1015.5
20260503071549 42 136 1.0 4.0 0.00 0.00 0.00 58 1015.5
20260503071036 42 0 1.0 4.0 0.00 0.00 0.00 64 1015.4
20260503070535 42 0 0.0 2.0 0.00 0.00 0.00 60 1015.3
20260503055035 36 338 1.0 4.0 0.00 0.00 0.00 84 1015.3
20260503054604 36 11 1.0 4.0 0.00 0.00 0.00 84 1015.4
20260503054035 36 4 1.0 4.0 0.00 0.00 0.00 85 1015.5
20260503053536 36 0 0.0 1.0 0.00 0.00 0.00 84 1015.4
20260503053043 36 0 0.0 3.0 0.00 0.00 0.00 82 1015.4
20260503052535 36 0 1.0 3.0 0.00 0.00 0.00 82 1015.5
20260503052034 37 0 0.0 4.0 0.00 0.00 0.00 82 1015.4
20260503051542 37 342 3.0 5.0 0.00 0.00 0.00 81 1015.4
20260503051034 36 328 2.0 5.0 0.00 0.00 0.00 82 1015.4
20260503050535 37 347 1.0 5.0 0.00 0.00 0.00 81 1015.3
20260503050040 37 11 3.0 5.0 0.00 0.00 0.00 80 1015.6
20260503045538 36 346 3.0 5.0 0.00 0.00 0.00 81 1015.5
20260503045033 36 347 3.0 5.0 0.00 0.00 0.00 82 1015.5
20260503044542 36 331 2.0 4.0 0.00 0.00 0.00 84 1015.5
20260503044034 36 354 1.0 3.0 0.00 0.00 0.00 82 1015.3
20260503043534 36 0 0.0 5.0 0.00 0.00 0.00 81 1015.3
20260503043048 37 4 2.0 5.0 0.00 0.00 0.00 82 1015.3
20260503042535 37 357 2.0 3.0 0.00 0.00 0.00 80 1015.3
20260503042034 37 7 1.0 4.0 0.00 0.00 0.00 79 1015.2
20260503041542 38 342 0.0 4.0 0.00 0.00 0.00 77 1015.3
20260503041035 38 84 2.0 4.0 0.00 0.00 0.00 77 1015.2
20260503040535 38 359 1.0 3.0 0.00 0.00 0.00 75 1015.3
20260503040041 39 359 1.0 3.0 0.00 0.00 0.00 73 1015.2
20260503035535 40 0 1.0 2.0 0.00 0.00 0.00 71 1015.2